FW7479 Weather Reports


Display with metric or nautical units.
time (UTC)temp
F
wind
direction
speed
MPH
gust
MPH
rain 1hr
in
rain 24hr
in
rain mn
in
humidity
%
barometer
mb
20260505140353 62 76 0.0 2.0 0.00 0.00 0.27 91 1005.2
20260505124850 61 317 0.0 0.0 0.00 0.00 0.27 90 1004.9
20260505124401 61 317 0.0 1.0 0.00 0.00 0.27 90 1004.7
20260505123906 61 317 0.0 1.0 0.00 0.00 0.27 90 1004.5
20260505123359 61 317 0.0 1.0 0.00 0.00 0.27 90 1004.5
20260505122846 61 317 0.0 2.0 0.00 0.00 0.27 90 1004.5
20260505122341 61 316 1.0 2.0 0.00 0.00 0.27 90 1004.5
20260505121835 61 316 1.0 2.0 0.00 0.00 0.27 90 1004.5
20260505121319 61 317 0.0 1.0 0.00 0.00 0.27 90 1004.4
20260505120833 61 316 1.0 1.0 0.00 0.00 0.27 89 1004.4
20260505120316 61 317 0.0 2.0 0.00 0.00 0.26 89 1004.1
20260505114910 61 267 0.0 1.0 0.00 0.00 0.26 89 1003.9
20260505113401 61 269 1.0 2.0 0.00 0.00 0.26 89 1003.5
20260505112409 61 269 0.0 2.0 0.00 0.00 0.26 89 1003.1
20260505111900 61 269 0.0 3.0 0.00 0.00 0.26 89 1003.1
20260505110344 61 169 2.0 3.0 0.00 0.00 0.26 89 1003.0
20260505101845 61 192 0.0 2.0 0.00 0.00 0.26 88 1003.8
20260505092358 62 179 1.0 3.0 0.00 0.00 0.23 87 1003.8
20260505091854 62 236 1.0 2.0 0.00 0.00 0.23 86 1004.7
20260505091340 62 228 0.0 2.0 0.00 0.00 0.22 86 1004.6
20260505090832 62 206 1.0 2.0 0.00 0.00 0.22 86 1004.4
20260505090320 62 206 0.0 1.0 0.00 0.00 0.21 86 1003.9
20260505084905 62 224 0.0 2.0 0.00 0.00 0.17 85 1004.6
20260505081408 62 244 1.0 4.0 0.00 0.00 0.06 82 1004.6
20260505080907 63 302 1.0 4.0 0.00 0.00 0.05 82 1004.3
20260505073812 63 273 0.0 1.0 0.00 0.00 0.00 76 1003.7
20260505073316 64 273 0.0 2.0 0.00 0.00 0.00 76 1003.8
20260505072816 64 266 0.0 2.0 0.00 0.00 0.00 75 1003.9
20260505071908 64 197 0.0 0.0 0.00 0.00 0.00 73 1003.6
20260505070901 64 197 0.0 0.0 0.00 0.00 0.00 73 1003.7
20260505070351 64 197 0.0 0.0 0.00 0.00 0.00 72 1003.7
20260505065818 64 197 0.0 0.0 0.00 0.00 0.00 73 1003.7
20260505065312 64 197 0.0 0.0 0.00 0.00 0.00 73 1003.5
20260505064827 64 197 0.0 0.0 0.00 0.00 0.00 73 1004.0
20260505064320 64 197 0.0 0.0 0.00 0.00 0.00 73 1004.0
20260505063815 64 197 0.0 0.0 0.00 0.00 0.00 73 1004.1
20260505063329 64 197 0.0 0.0 0.00 0.00 0.00 73 1004.0
20260505061816 64 197 0.0 0.0 0.00 0.00 0.00 72 1004.3
20260505061329 64 197 0.0 0.0 0.00 0.00 0.00 72 1004.5
20260505060824 64 198 0.0 0.0 0.00 0.00 0.00 73 1004.5
20260505060317 64 198 0.0 0.0 0.00 0.00 0.00 73 1004.5
20260505055812 64 198 0.0 0.0 0.00 0.00 0.00 73 1004.7
20260505055328 64 197 0.0 0.0 0.00 0.00 0.00 73 1004.6
20260505054825 64 197 0.0 0.0 0.00 0.00 0.00 73 1004.6
20260505054320 64 198 0.0 0.0 0.00 0.00 0.00 73 1004.4
20260505053816 64 198 0.0 0.0 0.00 0.00 0.00 72 1004.3
20260505053310 64 198 0.0 0.0 0.00 0.00 0.00 72 1004.2
20260505052827 64 198 0.0 0.0 0.00 0.00 0.00 72 1004.3
20260505052320 64 198 0.0 0.0 0.00 0.00 0.00 72 1004.3
20260505051815 64 198 0.0 0.0 0.00 0.00 0.00 72 1004.4
20260505051327 64 198 0.0 0.0 0.00 0.00 0.00 72 1004.4
20260505050821 64 197 0.0 0.0 0.00 0.00 0.00 71 1004.5
20260505050315 65 198 0.0 0.0 0.00 0.00 0.00 71 1004.7
20260505035345 67 198 0.0 2.0 0.00 0.00 0.00 65 1005.1
20260505034825 67 198 1.0 2.0 0.00 0.00 0.00 65 1005.2
20260505034319 68 199 0.0 0.0 0.00 0.00 0.00 64 1005.2
20260505033827 68 199 0.0 1.0 0.00 0.00 0.00 64 1005.3
20260505033321 68 198 0.0 2.0 0.00 0.00 0.00 64 1005.3
20260505032820 68 199 0.0 2.0 0.00 0.00 0.00 64 1005.4
20260505031400 69 205 0.0 1.0 0.00 0.00 0.00 63 1005.3
20260505030905 69 204 0.0 1.0 0.00 0.00 0.00 62 1005.4
20260505030358 69 205 0.0 2.0 0.00 0.00 0.00 62 1005.3
20260505025837 69 204 0.0 2.0 0.00 0.00 0.00 62 1005.3
20260505025322 69 205 1.0 2.0 0.00 0.00 0.00 61 1005.2
20260505023409 71 211 0.0 0.0 0.00 0.00 0.00 58 1005.1
20260505021903 71 211 0.0 0.0 0.00 0.00 0.00 58 1004.8
20260505021401 72 211 0.0 0.0 0.00 0.00 0.00 57 1004.6
20260505020858 72 211 0.0 0.0 0.00 0.00 0.00 57 1004.6
20260505020343 72 211 0.0 1.0 0.00 0.00 0.00 57 1004.5
20260505015831 73 211 0.0 2.0 0.00 0.00 0.00 56 1004.3
20260505015338 73 211 0.0 2.0 0.00 0.00 0.00 56 1004.3
20260505014411 73 212 0.0 2.0 0.00 0.00 0.00 55 1004.4
20260505013859 73 211 1.0 3.0 0.00 0.00 0.00 55 1004.2
20260505013400 74 178 0.0 3.0 0.00 0.00 0.00 54 1004.1
20260505010906 74 213 1.0 5.0 0.00 0.00 0.00 53 1003.7
20260505005903 75 184 1.0 4.0 0.00 0.00 0.00 52 1003.6
20260505004812 75 163 4.0 6.0 0.00 0.00 0.00 51 1003.6
20260505003408 76 178 2.0 4.0 0.00 0.00 0.00 50 1003.4
20260505002856 76 173 1.0 5.0 0.00 0.00 0.00 50 1003.4
20260505001316 77 192 3.0 5.0 0.00 0.00 0.00 49 1003.4
20260505000813 77 167 3.0 7.0 0.00 0.00 0.00 48 1003.3
20260504234907 78 153 7.0 12.0 0.00 0.00 0.00 46 1003.2
20260504233904 79 136 7.0 10.0 0.00 0.00 0.00 46 1003.1
20260504233358 79 194 5.0 9.0 0.00 0.00 0.00 46 1003.3
20260504232839 79 171 5.0 7.0 0.00 0.00 0.00 45 1003.3
20260504232344 79 161 3.0 9.0 0.00 0.00 0.00 45 1003.3
20260504231841 79 167 6.0 9.0 0.00 0.00 0.00 45 1003.3
20260504225909 81 198 4.0 12.0 0.00 0.00 0.00 42 1003.5
20260504224907 81 275 4.0 13.0 0.00 0.00 0.00 42 1003.4
20260504224351 81 161 5.0 11.0 0.00 0.00 0.00 41 1003.5
20260504223846 82 163 5.0 8.0 0.00 0.00 0.00 41 1003.5
20260504223350 82 250 5.0 8.0 0.00 0.00 0.00 39 1003.6
20260504222313 82 213 6.0 14.0 0.00 0.00 0.00 40 1003.4
20260504221411 82 194 6.0 9.0 0.00 0.00 0.00 39 1003.5
20260504220354 83 238 8.0 18.0 0.00 0.00 0.00 38 1003.6
20260504215319 83 203 7.0 13.0 0.00 0.00 0.00 39 1003.5
20260504213905 84 205 9.0 13.0 0.00 0.00 0.00 37 1003.5
20260504212319 84 179 7.0 15.0 0.00 0.00 0.00 38 1003.5
20260504210404 84 180 7.0 13.0 0.00 0.00 0.00 36 1003.9
20260504205406 84 236 5.0 12.0 0.00 0.00 0.00 38 1004.0
20260504204900 84 216 6.0 18.0 0.00 0.00 0.00 37 1004.0
20260504204353 84 184 5.0 18.0 0.00 0.00 0.00 39 1003.9
20260504203908 84 202 10.0 18.0 0.00 0.00 0.00 38 1004.0
20260504201904 85 223 8.0 18.0 0.00 0.00 0.00 38 1004.3
20260504201407 85 273 4.0 18.0 0.00 0.00 0.00 39 1004.2
20260504200859 85 215 7.0 14.0 0.00 0.00 0.00 37 1004.3
20260504200337 85 119 4.0 12.0 0.00 0.00 0.00 40 1004.2
20260504195831 84 184 6.0 15.0 0.00 0.00 0.00 39 1004.3
20260504195317 83 199 6.0 15.0 0.00 0.00 0.00 38 1004.4
20260504194826 84 223 8.0 18.0 0.00 0.00 0.00 38 1004.4
20260504194320 84 259 9.0 18.0 0.00 0.00 0.00 39 1004.4
20260504193816 84 227 7.0 13.0 0.00 0.00 0.00 41 1004.5
20260504192900 83 203 8.0 12.0 0.00 0.00 0.00 40 1004.8
20260504192402 83 174 7.0 17.0 0.00 0.00 0.00 41 1004.8
20260504191904 83 233 7.0 17.0 0.00 0.00 0.00 40 1004.9
20260504191400 83 196 7.0 12.0 0.00 0.00 0.00 41 1004.9
20260504185853 83 144 7.0 16.0 0.00 0.00 0.00 39 1004.9
20260504184404 84 161 5.0 10.0 0.00 0.00 0.00 40 1005.2
20260504180404 82 239 9.0 13.0 0.00 0.00 0.00 40 1005.5
20260504175908 82 125 4.0 10.0 0.00 0.00 0.00 42 1005.6
20260504175404 82 229 6.0 11.0 0.00 0.00 0.00 40 1005.5
20260504174907 82 203 5.0 12.0 0.00 0.00 0.00 41 1005.6
20260504174409 82 248 5.0 12.0 0.00 0.00 0.00 41 1005.6
20260504173348 81 242 5.0 17.0 0.00 0.00 0.00 40 1005.7
20260504172833 82 180 5.0 17.0 0.00 0.00 0.00 42 1005.8
20260504172353 82 146 7.0 17.0 0.00 0.00 0.00 41 1005.8
20260504171902 82 159 6.0 17.0 0.00 0.00 0.00 42 1005.8
20260504170358 81 218 7.0 12.0 0.00 0.00 0.00 42 1006.1
20260504160337 79 246 6.0 16.0 0.00 0.00 0.00 42 1006.7